Flag for Congo Weather past 2 weeks in Pointe-Noire, Congo

Now
79 °F

Passing clouds.


Feels Like: 82 °F
Forecast: 74 / 87 °F
Wind: 2 mph from North

Location: Pointe Airport-Noire

Current Time: Mar 30, 2015 at 12:10:39 AM

Latest Report: Mar 29, 2015 at 11:00 PM


Visibility: 5 mi

Pressure: 29.89 "Hg

Humidity: 89%

Dew point: 75 °F

Location of Pointe-NoireLocation

Historic Weather in Pointe-Noire — Graph

°F

Pointe-Noire temperature yesterday

Maximum temperature yesterday: 84 °F (at 12:00 PM)
Minimum temperature yesterday: 75 °F (at 1:00 AM)
Average temperature yesterday: 79 °F

Past Weeks' High & Low Weather Summary

 TemperatureHumidityPressure
High91 °F (Mar 17, 12:00 PM)100% (Mar 14, 11:00 PM)29.98 "Hg (Mar 14, 11:00 PM)
Low73 °F (Mar 19, 2:00 AM)52% (Mar 17, 12:00 PM)29.68 "Hg (Mar 18, 4:00 PM)
Average82 °F85%29.82 "Hg
* Reported Mar 14 11:00 PM — Mar 29 11:00 PM, Pointe-Noire, Weather by CustomWeather, © 2015

Note: Actual official high and low records may vary slightly from our data, if they occured in-between our weather recording intervals... More about our weather records

Advertising

Pointe-Noire weather history for previous 24 hours

 ConditionsComfort  
Time TempWeatherWind HumidityBarometerVisibility
11:00 PM
Sun, Mar 29
79 °FPassing clouds.2 mph89%29.89 "Hg5 mi
10:00 PM79 °FPassing clouds.3 mph94%29.86 "Hg5 mi
9:00 PM79 °FPassing clouds.3 mph94%29.86 "Hg5 mi
8:00 PM81 °FPassing clouds.2 mph89%29.86 "Hg5 mi
7:00 PM81 °FPassing clouds.2 mph89%29.83 "HgN/A
6:00 PM82 °FScattered clouds.2 mph84%29.83 "HgN/A
5:00 PM82 °FScattered clouds.3 mph84%29.83 "HgN/A
4:00 PM84 °FBroken clouds.5 mph79%29.86 "HgN/A
3:00 PM82 °FBroken clouds.5 mph84%29.86 "HgN/A
2:00 PM84 °FBroken clouds.3 mph79%29.86 "HgN/A
1:00 PM84 °FLight rain. Scattered clouds.6 mph79%29.92 "HgN/A
12:00 PM84 °FScattered clouds.8 mph74%29.92 "HgN/A
11:00 AM82 °FBroken clouds.3 mph79%29.95 "HgN/A
10:00 AM81 °FPartly sunny.6 mph79%29.95 "HgN/A
9:00 AM79 °FBroken clouds.6 mph84%29.95 "HgN/A
8:00 AM77 °FScattered clouds.6 mph89%29.95 "Hg5 mi
7:00 AM75 °FLight rain. Scattered clouds.3 mph100%29.92 "Hg5 mi
6:00 AM75 °FLight rain. Passing clouds.5 mph94%29.89 "Hg4 mi
5:00 AM75 °FLight rain. Mostly cloudy.3 mph100%29.89 "Hg4 mi
4:00 AM75 °FMostly cloudy.2 mph94%29.89 "Hg5 mi
3:00 AM75 °FPassing clouds.3 mph94%29.89 "Hg5 mi
2:00 AM75 °FPassing clouds.2 mph94%29.92 "Hg5 mi
1:00 AM75 °FPassing clouds.3 mph94%29.92 "Hg5 mi
12:00 AM77 °FPassing clouds.5 mph94%29.92 "Hg5 mi
Weather by CustomWeather, © 2015

See weather overviewHow to use our weather pages